TimeEST,TemperatureF,Dew PointF,Humidity,Sea Level PressureIn,VisibilityMPH,Wind Direction,Wind SpeedMPH,Gust SpeedMPH,PrecipitationIn,Events,Conditions,WindDirDegrees,DateUTC
12:56 AM,48.0,43.0,83,30.03,10.0,NNE,5.8,-,N/A,,Partly Cloudy,30,2012-11-06 05:56:00
1:56 AM,48.0,43.0,83,30.01,10.0,NE,8.1,-,N/A,,Mostly Cloudy,40,2012-11-06 06:56:00
2:56 AM,50.0,44.1,80,29.99,10.0,NE,9.2,-,N/A,,Mostly Cloudy,50,2012-11-06 07:56:00
3:56 AM,50.0,43.0,77,29.96,10.0,NE,12.7,-,N/A,,Overcast,40,2012-11-06 08:56:00
4:56 AM,50.0,43.0,77,29.99,10.0,NE,8.1,-,N/A,,Overcast,50,2012-11-06 09:56:00
5:56 AM,50.0,44.1,80,30.01,10.0,NNE,11.5,-,N/A,,Overcast,30,2012-11-06 10:56:00
6:56 AM,48.0,43.0,83,30.02,10.0,North,8.1,-,0.00,Rain,Light Rain,10,2012-11-06 11:56:00
7:56 AM,46.9,43.0,86,30.03,10.0,NNE,6.9,-,0.01,Rain,Light Rain,30,2012-11-06 12:56:00
8:56 AM,45.0,41.0,86,29.98,10.0,NE,12.7,-,0.00,,Overcast,40,2012-11-06 13:56:00
9:56 AM,45.0,39.0,80,30.00,10.0,North,9.2,-,N/A,,Overcast,10,2012-11-06 14:56:00
10:56 AM,48.0,39.9,74,29.98,10.0,NNE,11.5,-,N/A,,Mostly Cloudy,30,2012-11-06 15:56:00
11:56 AM,51.1,41.0,68,29.95,10.0,NNE,11.5,-,N/A,,Mostly Cloudy,20,2012-11-06 16:56:00
12:56 PM,53.1,41.0,64,29.91,10.0,NNE,10.4,-,N/A,,Mostly Cloudy,20,2012-11-06 17:56:00
1:56 PM,53.1,41.0,64,29.89,10.0,North,11.5,-,N/A,,Mostly Cloudy,10,2012-11-06 18:56:00
2:56 PM,54.0,39.9,59,29.89,10.0,NNE,11.5,-,N/A,,Mostly Cloudy,20,2012-11-06 19:56:00
3:56 PM,52.0,39.0,61,29.91,10.0,North,9.2,-,N/A,,Mostly Cloudy,10,2012-11-06 20:56:00
4:56 PM,51.1,39.9,66,29.92,10.0,North,9.2,-,N/A,,Mostly Cloudy,350,2012-11-06 21:56:00
5:56 PM,50.0,39.9,68,29.91,10.0,North,10.4,-,N/A,,Scattered Clouds,10,2012-11-06 22:56:00
6:56 PM,48.0,39.9,74,29.93,10.0,North,6.9,-,N/A,,Partly Cloudy,360,2012-11-06 23:56:00
7:56 PM,46.9,39.9,77,29.93,10.0,North,9.2,-,N/A,,Partly Cloudy,360,2012-11-07 00:56:00
8:56 PM,46.0,39.0,76,29.93,10.0,North,9.2,18.4,N/A,,Scattered Clouds,10,2012-11-07 01:56:00
9:56 PM,45.0,37.9,76,29.92,10.0,NNE,8.1,-,N/A,,Partly Cloudy,20,2012-11-07 02:56:00
10:56 PM,44.1,37.0,76,29.92,10.0,North,6.9,-,N/A,,Clear,10,2012-11-07 03:56:00
11:56 PM,42.1,37.0,82,29.91,10.0,North,5.8,-,N/A,,Clear,10,2012-11-07 04:56:00